Location: Chervonnoye
(48.6000°N, 34.4000°E)
Time: 13:12:20
(UTC+00:00)

COSMO-SKYMED 1 - Pass Details

Date: 23 November 2020
Orbit: 621 x 623 km, 97.9° (Epoch: 27 January)

Event Time Altitude Azimuth Distance (km) Brightness Sun altitude
Exits shadow 14:55:59 10° 41° (NE) 2,017 4.7 -10.0°
Reaches altitude 10° 14:56:01 10° 42° (NE) 2,006 4.6 -10.0°
Maximum altitude 14:59:23 21° 92° (E) 1,394 3.8 -10.6°
Drops below altitude 10° 15:02:43 10° 143° (SE) 1,992 5.0 -11.1°
Sets 15:05:20 0° 159° (SSE) 2,893 6.0 -11.5°
